Wetbulb
48.64 48.98 48.74 48.51 48.51 47.70 44.52 38.14 32.02 42.49 45.76 36.05 38.53 35.30 37.83 39.72 39.25 42.70 41.69 40.23 39.11 36.96 37.81 35.73 35.29 37.31 40.97 44.57 43.44 38.67 43.89 41.45 36.23 38.88 46.19 47.80 45.64 41.55 39.45 33.62 31.77 32.94 31.83 31.43
48.62 48.75 48.61 48.64 48.41 47.83 42.39 35.02 36.79 43.32 46.70 29.98 31.81 36.11 36.80 38.96 38.96 40.28 39.99 39.24 40.84 38.83 36.60 34.76 36.81 39.79 44.88 43.54 41.96 40.04 44.30 39.90 32.94 36.57 41.02 43.59 41.19 42.88 40.65 37.77 35.87 33.34 31.10 33.76
48.49 48.06 48.23 48.36 48.24 48.08 44.08 36.94 31.51 36.83 37.53 37.72 34.63 33.64 34.75 35.11 41.12 41.11 42.37 40.84 40.45 37.06 35.62 37.99 36.52 38.17 43.39 44.04 43.30 45.90 43.88 42.45 35.29 32.48 36.29 40.10 38.59 40.78 42.44 38.84 32.02 34.17 35.04 39.37
48.11 47.92 48.16 48.21 47.94 47.90 42.31 37.10 32.45 36.82 28.92 31.67 33.97 35.13 34.58 34.49 34.61 40.93 41.54 39.71 38.85 37.35 34.26 35.61 36.06 39.23 42.41 45.06 46.44 44.43 43.98 39.43 40.50 42.01 43.30 43.10 42.94 42.18 41.48 38.56 38.40 36.27 39.45 39.97
47.45 47.57 47.94 48.11 48.15 47.53 37.33 31.95 32.74 36.94 33.62 35.05 33.37 33.63 34.84 33.00 33.85 36.80 38.12 37.77 39.12 37.56 34.94 37.25 34.60 38.04 39.96 40.05 44.71 42.89 44.07 39.75 41.49 39.59 43.51 42.97 41.62 42.33 43.36 42.83 43.45 42.79 42.55 41.15
47.21 46.88 47.64 48.19 48.51 46.45 40.06 40.66 38.76 36.85 33.99 32.85 31.43 32.56 34.07 35.11 36.77 40.39 41.46 39.63 38.09 36.41 38.81 41.07 41.79 41.58 42.92 44.31 43.06 40.67 39.89 41.07 37.64 35.65 42.06 41.10 36.36 41.21 42.83 43.02 45.24 44.13 39.28 43.72
46.72 46.78 47.20 47.47 48.24 47.29 41.23 41.14 40.02 35.06 28.64 32.24 31.85 34.25 36.46 35.41 36.60 37.16 40.75 41.01 38.82 41.80 44.91 43.73 44.33 44.73 44.44 44.34 44.48 44.25 40.16 40.16 39.02 35.77 37.96 29.46 41.11 47.19 46.82 44.20 44.67 46.81 45.80 47.38
47.16 47.21 47.46 47.50 47.87 48.22 40.23 39.36 40.25 36.42 30.45 33.27 33.02 34.35 35.42 36.28 38.12 38.14 40.14 40.95 43.03 45.20 42.50 39.62 36.15 36.75 37.48 40.71 44.08 43.40 43.57 40.40 36.20 31.27 32.98 38.09 41.93 44.16 43.95 42.02 41.89 47.21 45.40 42.79
46.95 47.11 47.85 47.77 48.41 48.42 41.63 39.49 42.04 39.87 33.43 32.05 35.07 34.79 36.14 34.45 36.02 37.56 39.67 43.86 45.69 44.79 39.13 37.89 33.11 31.44 34.22 34.26 38.48 44.86 44.51 44.66 37.41 32.55 30.73 30.90 41.22 46.92 48.58 47.29 37.10 46.48 44.28 42.16
46.87 46.97 47.29 48.06 47.99 48.20 45.62 42.75 42.76 40.92 34.39 36.98 38.19 33.94 35.19 38.73 36.32 35.25 39.87 40.42 41.44 43.66 36.42 36.05 35.53 34.89 39.75 34.57 34.61 35.39 38.53 38.79 34.24 31.82 33.62 37.84 45.34 48.07 49.43 35.95 35.93 45.70 44.90 44.58
47.33 47.56 47.63 48.11 48.47 48.71 46.29 42.95 44.94 41.31 37.34 38.07 40.03 40.10 37.14 37.32 37.42 35.60 39.84 38.63 37.93 36.53 33.73 36.45 36.39 36.30 39.50 37.35 38.84 37.90 37.41 35.13 33.41 33.29 32.98 30.55 46.92 46.69 40.14 41.98 43.50 44.49 43.67 42.43
47.72 48.02 48.24 48.51 48.76 48.78 48.44 41.96 42.11 44.02 40.64 38.65 42.35 43.02 44.15 42.73 42.41 40.07 42.32 40.49 40.08 38.90 35.69 36.12 34.47 37.56 39.62 37.54 32.81 42.87 36.00 39.61 38.12 38.03 39.25 43.38 45.64 44.28 45.64 44.84 43.15 43.62 43.44 44.18
48.15 48.55 48.44 48.84 48.74 49.08 48.19 43.88 40.56 43.63 40.46 38.07 37.11 39.28 45.98 48.40 48.29 48.74 41.47 42.84 44.88 43.49 45.23 42.34 40.08 36.97 40.28 35.05 37.87 40.16 44.19 46.73 41.49 40.65 42.68 42.60 43.56 44.83 45.22 44.84 43.44 44.02 44.63 43.44
48.73 49.02 48.32 49.05 48.59 48.36 48.92 42.27 43.78 43.19 40.89 34.49 37.11 46.27 43.79 47.47 48.37 49.28 48.76 46.43 46.75 45.99 44.24 41.70 38.90 37.26 41.34 37.86 40.75 40.00 42.33 43.76 40.80 40.26 41.95 42.50 43.05 43.66 43.94 43.97 44.31 43.33 42.99 41.79
48.81 49.16 49.14 48.81 48.52 49.07 47.34 45.20 47.18 47.26 41.60 35.33 37.25 42.16 45.40 47.32 46.57 46.21 47.61 45.45 43.94 42.10 39.56 37.17 36.29 39.17 38.28 38.70 39.87 38.38 43.03 41.28 38.48 38.25 42.31 41.14 41.02 42.79 43.60 41.83 41.04 40.91 39.45 38.08
48.66 49.10 49.27 49.18 49.09 49.19 43.85 40.31 46.21 47.00 45.33 39.18 34.32 41.18 42.02 44.33 44.48 44.91 45.42 43.97 42.53 40.73 38.73 36.05 37.64 40.57 36.99 35.83 36.12 42.91 44.66 45.31 45.85 42.27 43.85 42.50 42.59 42.55 42.47 39.92 39.86 39.81 38.96 38.43
48.37 48.96 48.97 48.69 48.98 42.69 38.16 39.48 41.40 46.54 45.60 39.74 36.04 35.46 40.87 42.51 41.86 42.49 42.99 42.62 40.61 39.66 37.32 36.13 36.15 37.07 38.78 37.84 37.46 43.72 46.94 45.42 45.09 45.48 43.11 39.35 40.33 38.35 41.03 41.04 41.28 41.54 39.95 38.88
48.65 49.28 49.42 49.28 48.80 46.90 42.94 46.30 48.32 48.15 42.59 41.94 35.72 35.58 36.69 41.01 36.34 35.94 40.79 38.75 39.50 38.39 37.25 37.40 35.44 37.08 37.10 35.78 40.09 46.08 46.20 46.62 45.78 44.85 44.46 40.81 40.80 40.63 40.20 40.88 40.58 39.06 37.99 37.85
48.20 49.76 49.44 44.86 41.76 40.65 40.36 48.94 49.83 47.17 43.11 36.46 37.52 34.41 30.65 39.07 37.21 37.33 38.44 37.91 34.19 37.35 34.15 35.25 36.05 33.54 33.77 40.03 41.26 45.28 45.95 44.32 43.34 43.12 42.36 40.72 39.57 39.49 39.96 39.86 39.40 37.91 37.65 37.64
49.46 44.27 39.75 38.44 42.49 48.60 47.55 44.48 39.34 40.25 39.18 41.34 36.75 37.07 34.01 37.39 36.29 35.95 35.71 35.86 32.51 31.32 33.63 36.44 32.56 34.25 40.56 43.83 44.32 45.80 47.09 44.95 44.83 41.70 39.90 39.96 38.96 39.18 39.06 39.16 39.79 39.30 38.51 38.08
40.47 36.24 38.46 39.79 46.96 40.72 40.06 36.81 35.65 36.81 36.01 38.85 38.59 36.14 34.60 39.95 34.94 33.37 36.66 30.78 33.12 31.06 32.94 32.50 30.35 31.06 37.62 44.06 45.02 46.95 47.09 46.70 45.94 45.99 44.46 43.40 41.57 40.34 40.04 40.23 40.85 40.30 39.38 38.16
42.69 42.74 45.06 43.16 39.33 37.86 36.18 34.94 37.70 36.47 32.88 38.52 35.07 37.67 37.31 38.23 40.08 36.46 36.45 32.67 34.91 31.84 36.73 32.38 29.18 39.15 40.88 44.59 45.24 45.56 45.98 45.97 46.19 45.99 44.61 42.52 42.47 42.33 41.59 40.72 39.63 38.84 39.08 39.09
45.18 42.23 39.23 39.36 35.30 33.05 33.02 31.31 33.65 33.61 38.33 35.87 36.04 34.92 36.59 37.91 38.69 35.55 35.43 32.06 31.06 38.19 30.36 31.49 38.18 41.98 45.42 44.44 45.57 45.52 47.31 47.81 47.34 45.10 42.74 42.48 41.96 42.09 40.72 39.59 39.87 39.16 37.84 38.02
38.46 35.71 30.03 34.01 34.01 32.17 33.58 35.00 36.86 39.85 39.80 37.44 38.85 37.13 37.41 35.92 35.58 33.27 30.44 34.25 34.60 30.67 32.47 33.20 38.22 40.62 45.28 45.63 46.53 46.53 46.42 46.93 45.37 41.75 41.77 41.16 40.74 40.32 40.57 39.91 39.38 38.23 36.82 37.13
36.58 36.13 30.68 34.18 37.08 38.63 38.98 40.37 39.72 42.03 41.12 40.52 38.84 37.96 36.68 33.79 32.17 33.06 31.96 31.35 32.05 33.94 31.17 32.70 38.35 41.15 45.66 43.72 44.87 45.31 44.60 43.61 40.94 40.72 39.72 39.46 39.63 39.01 38.15 38.06 37.99 38.57 37.67 36.34
38.74 36.94 33.83 36.53 35.92 36.61 37.74 39.20 40.67 43.16 41.68 40.61 40.20 35.46 34.44 34.09 33.35 32.26 29.50 30.87 31.30 33.61 37.81 40.38 43.19 44.27 43.72 43.00 44.29 45.50 45.85 40.95 39.57 39.40 39.06 38.79 38.52 37.48 36.65 37.18 37.22 37.13 37.20 36.39
38.09 36.01 37.08 35.98 36.98 36.13 37.45 38.79 41.29 41.96 39.83 37.42 37.84 33.41 34.90 36.37 32.47 32.47 36.39 33.69 36.28 39.69 39.93 40.20 42.29 42.08 42.54 43.69 43.07 40.91 40.18 39.14 38.78 38.59 38.18 37.84 37.94 37.52 36.43 34.16 34.27 35.03 35.26 35.29
MSLP
1022.74 1021.97 1021.17 1020.34 1019.45 1018.38 1017.30 1016.82 1015.19 1011.24 1011.12 1011.64 1011.93 1010.53 1009.84 1009.07 1007.21 1006.36 1005.56 1004.99 1004.30 1003.91 1003.50 1002.81 1002.48 1001.29 1000.67 1000.82 1001.52 1001.27 1001.12 1000.49 999.76 998.10 998.11 998.23 998.22 998.90 999.66 1000.88 1003.28 1004.01 1004.90 1006.12
1022.68 1021.93 1021.18 1020.35 1019.63 1019.00 1018.24 1016.96 1015.13 1012.14 1011.91 1013.10 1012.12 1010.90 1009.70 1008.53 1007.27 1006.34 1005.36 1004.72 1004.12 1003.87 1003.51 1003.01 1002.02 1001.14 1000.64 1001.23 1001.30 1001.62 1001.17 1000.61 1000.04 999.96 999.46 998.60 998.29 999.05 999.55 1000.04 1002.21 1003.87 1004.90 1006.03
1022.48 1021.78 1021.10 1020.34 1019.65 1018.98 1018.54 1017.52 1015.82 1014.16 1013.48 1013.83 1013.08 1011.68 1009.73 1008.61 1007.20 1005.86 1005.26 1004.60 1004.12 1004.17 1003.68 1002.50 1001.55 1001.30 1000.65 1001.23 1001.27 1001.76 1001.34 999.90 998.95 998.10 997.88 998.88 998.95 998.84 998.40 999.42 1001.89 1003.64 1004.04 1005.10
1022.24 1021.56 1020.83 1020.13 1019.52 1018.83 1018.55 1017.78 1016.86 1016.58 1014.97 1013.74 1013.39 1012.41 1010.76 1009.28 1007.80 1006.38 1005.16 1004.27 1004.05 1004.12 1003.77 1003.12 1001.75 1001.03 1000.83 1001.05 1000.95 1001.04 1000.99 999.46 998.80 997.86 997.53 998.17 998.78 998.36 998.26 999.25 1000.71 1001.94 1003.56 1003.92
1022.04 1021.47 1020.79 1020.06 1019.33 1018.77 1018.60 1018.53 1018.19 1016.85 1015.74 1014.54 1013.58 1012.20 1010.68 1009.88 1008.04 1007.12 1005.31 1004.52 1004.43 1004.04 1003.96 1003.44 1002.79 1002.17 1000.91 1000.59 1000.44 1000.17 1000.21 999.17 998.54 998.47 997.86 998.15 999.14 998.66 998.76 999.62 1000.76 1001.77 1002.95 1003.80
1021.91 1021.24 1020.67 1019.91 1019.33 1019.05 1018.80 1018.52 1018.03 1017.25 1015.55 1014.50 1013.67 1012.34 1011.59 1010.16 1008.92 1006.83 1005.65 1005.27 1004.44 1003.88 1003.65 1003.43 1002.97 1002.54 1001.65 1000.81 1000.37 1000.19 999.78 998.95 999.30 999.63 998.97 999.00 999.35 999.32 999.38 1000.17 1000.85 1001.82 1003.18 1003.79
1021.82 1021.06 1020.39 1019.79 1019.26 1019.05 1019.27 1018.71 1018.14 1017.07 1015.44 1014.61 1013.54 1012.53 1011.59 1010.36 1009.04 1007.31 1005.72 1005.31 1004.51 1003.61 1003.39 1002.86 1002.00 1001.64 1000.91 1000.56 1000.04 1000.07 999.81 999.49 999.96 1000.21 999.92 999.91 999.51 998.88 999.50 1000.32 1001.63 1002.76 1003.42 1004.12
1021.48 1020.76 1020.13 1019.39 1018.83 1018.47 1018.73 1018.34 1018.07 1016.80 1015.36 1014.32 1013.00 1012.09 1011.37 1010.04 1008.70 1007.23 1006.03 1005.12 1004.57 1003.43 1002.92 1001.99 1001.49 1001.10 1000.64 1000.04 999.68 1000.05 1000.18 1000.16 1000.80 1001.03 1000.58 1000.31 999.52 999.28 999.20 999.62 1002.40 1003.20 1004.24 1005.61
1020.99 1020.19 1019.61 1018.95 1018.29 1017.88 1017.82 1017.70 1017.44 1016.72 1015.44 1013.64 1013.27 1012.31 1011.27 1010.00 1008.69 1007.01 1005.74 1004.64 1003.75 1003.18 1002.60 1001.56 1001.02 1000.57 1000.29 1000.01 999.94 999.76 999.73 999.92 1001.06 1000.45 999.95 1000.06 999.50 998.79 998.48 999.23 1001.66 1002.69 1004.46 1005.73
1020.64 1019.72 1019.10 1018.44 1017.83 1017.32 1017.23 1016.84 1016.70 1016.43 1015.44 1013.53 1013.14 1012.32 1011.26 1010.21 1009.32 1007.96 1005.96 1004.86 1003.54 1002.92 1002.46 1001.39 1000.61 1000.28 1000.16 1000.13 1000.02 1000.08 1000.17 1000.37 1000.65 1000.38 1000.17 1000.19 999.54 999.13 998.72 1000.41 1002.99 1003.08 1004.62 1006.24
1020.10 1019.28 1018.65 1017.86 1017.28 1016.74 1016.64 1016.18 1015.83 1016.01 1014.92 1013.06 1012.41 1011.57 1011.05 1009.81 1009.39 1008.14 1006.33 1005.16 1004.42 1003.62 1002.70 1001.97 1001.33 1000.43 999.79 999.46 999.80 999.92 1000.19 1000.80 1001.25 1000.98 1001.30 1001.46 999.72 999.71 1000.53 1002.71 1003.32 1004.06 1005.84 1007.33
1019.55 1018.72 1018.20 1017.42 1016.74 1016.17 1015.82 1015.72 1015.16 1015.02 1014.76 1012.93 1011.82 1010.60 1009.63 1009.57 1008.60 1008.15 1006.70 1006.13 1005.33 1004.72 1003.85 1002.99 1002.21 1001.11 1000.15 999.61 999.93 999.59 1000.14 1000.52 1000.82 1001.32 1001.94 1001.69 1000.70 1001.00 1002.38 1003.20 1004.01 1005.89 1006.98 1008.67
1018.94 1018.10 1017.48 1016.90 1016.27 1015.77 1015.56 1015.37 1014.93 1014.62 1013.88 1012.17 1011.25 1009.63 1008.37 1007.70 1007.44 1007.28 1007.07 1005.66 1004.74 1004.03 1003.74 1002.90 1002.34 1001.56 1001.09 1000.83 1000.56 1000.18 1000.63 1000.45 1000.92 1001.39 1003.58 1003.03 1002.78 1003.36 1003.95 1004.60 1005.63 1006.96 1007.68 1008.82
1018.30 1017.46 1016.78 1016.25 1015.79 1015.40 1015.17 1015.29 1014.65 1014.69 1014.01 1013.00 1010.85 1009.28 1008.26 1007.34 1006.90 1006.36 1006.04 1005.35 1004.24 1003.74 1002.91 1002.92 1002.48 1002.18 1001.44 1001.69 1001.52 1001.17 1001.57 1001.55 1002.72 1003.82 1004.12 1003.92 1005.05 1005.23 1005.87 1006.81 1007.50 1008.45 1009.54 1010.39
1017.50 1016.73 1016.16 1015.71 1015.39 1015.11 1014.73 1014.63 1014.22 1013.99 1013.98 1012.98 1011.10 1009.63 1008.03 1007.35 1006.90 1006.17 1005.47 1005.04 1004.47 1004.12 1003.68 1003.63 1003.56 1003.06 1002.64 1002.33 1002.24 1002.70 1002.92 1002.67 1003.09 1004.17 1004.55 1004.81 1006.50 1006.77 1007.16 1007.93 1009.04 1009.88 1010.68 1012.12
1016.85 1016.14 1015.67 1015.27 1015.01 1014.81 1014.80 1014.43 1014.17 1013.87 1013.81 1013.15 1011.71 1009.79 1008.37 1007.65 1007.01 1006.25 1005.62 1005.02 1004.66 1004.74 1004.94 1004.81 1004.22 1003.61 1003.56 1004.22 1004.34 1003.82 1003.12 1002.79 1003.08 1004.41 1005.26 1005.86 1006.98 1007.65 1008.25 1009.20 1010.35 1011.10 1011.86 1012.90
1016.19 1015.53 1015.15 1014.83 1014.67 1014.86 1014.84 1014.49 1014.18 1013.71 1013.62 1013.25 1011.85 1010.62 1009.13 1008.34 1007.80 1006.98 1006.34 1005.60 1005.39 1005.38 1005.65 1005.71 1005.30 1004.64 1004.05 1004.85 1004.92 1004.20 1003.69 1003.74 1004.31 1004.77 1005.41 1007.27 1007.88 1009.19 1009.62 1010.34 1011.45 1012.26 1013.06 1014.00
1015.46 1014.79 1014.34 1014.16 1014.12 1014.27 1014.19 1013.71 1013.72 1013.48 1013.58 1013.07 1012.22 1011.14 1010.23 1009.28 1008.88 1008.25 1007.14 1006.84 1006.34 1006.01 1006.25 1006.02 1005.96 1005.29 1005.33 1005.75 1005.29 1005.01 1005.01 1005.06 1005.54 1006.21 1006.68 1007.76 1009.03 1009.76 1010.65 1011.34 1012.24 1013.20 1014.06 1014.93
1014.76 1014.04 1013.77 1014.01 1014.10 1014.14 1013.88 1013.46 1013.24 1013.37 1013.87 1013.11 1012.25 1011.65 1010.84 1009.89 1009.58 1008.88 1008.10 1007.66 1007.57 1006.96 1007.07 1007.00 1006.59 1006.75 1006.51 1006.11 1005.67 1005.78 1005.79 1005.92 1006.59 1007.11 1007.88 1008.94 1009.55 1010.32 1011.37 1012.09 1013.00 1013.81 1014.80 1015.75
1014.20 1013.95 1014.17 1014.31 1014.22 1013.81 1013.63 1013.20 1013.26 1013.23 1013.07 1012.76 1012.10 1011.15 1010.89 1010.54 1009.82 1009.34 1009.07 1008.38 1008.38 1008.21 1007.99 1007.36 1007.81 1007.53 1006.70 1005.99 1005.76 1005.89 1005.99 1006.45 1006.94 1007.72 1009.05 1009.70 1010.24 1010.96 1011.86 1012.59 1013.44 1014.23 1015.21 1016.10
1015.15 1015.20 1015.06 1014.66 1013.98 1013.99 1013.55 1013.17 1013.01 1012.47 1012.35 1011.79 1011.14 1010.83 1010.64 1009.94 1010.05 1009.66 1009.24 1009.04 1008.67 1008.69 1008.49 1008.19 1008.40 1008.16 1007.48 1006.78 1006.52 1006.57 1006.79 1007.33 1007.66 1007.93 1008.75 1009.51 1010.21 1011.15 1012.12 1013.14 1013.87 1014.68 1015.55 1016.40
1016.07 1015.77 1015.33 1014.91 1014.32 1013.84 1013.60 1012.75 1012.06 1011.81 1011.50 1011.00 1010.83 1010.45 1010.33 1010.03 1009.67 1009.80 1008.97 1008.95 1008.61 1008.66 1008.22 1008.67 1008.91 1008.15 1007.63 1007.17 1007.25 1007.41 1007.54 1007.84 1008.20 1008.57 1009.35 1010.02 1010.78 1011.51 1012.43 1013.36 1014.32 1015.22 1016.02 1016.74
1015.28 1015.27 1015.18 1014.69 1014.08 1013.67 1013.34 1012.79 1011.92 1011.64 1010.88 1010.70 1010.52 1010.43 1010.23 1009.83 1009.63 1009.70 1009.38 1009.11 1008.82 1008.36 1008.96 1009.39 1009.42 1008.81 1007.98 1007.80 1007.79 1008.09 1008.08 1008.08 1008.54 1009.29 1009.97 1010.78 1011.60 1012.24 1012.99 1014.05 1014.95 1015.67 1016.48 1017.18
1015.55 1015.38 1015.03 1014.34 1013.93 1013.86 1013.59 1013.08 1012.41 1011.39 1010.61 1010.43 1010.27 1010.31 1010.32 1010.18 1009.93 1009.87 1009.79 1009.11 1008.81 1009.24 1010.09 1010.45 1010.08 1009.46 1008.90 1008.30 1008.29 1008.51 1009.00 1009.30 1009.50 1010.24 1010.87 1011.66 1012.40 1013.34 1014.05 1014.66 1015.37 1016.16 1016.98 1017.70
1015.53 1015.51 1015.02 1014.31 1014.10 1013.60 1013.12 1012.62 1012.02 1010.96 1010.29 1010.22 1010.21 1010.27 1010.38 1010.43 1010.41 1010.22 1010.10 1009.67 1009.80 1010.42 1010.88 1011.16 1010.52 1009.77 1009.50 1009.09 1009.02 1009.17 1009.49 1009.90 1010.47 1011.00 1011.80 1012.56 1013.30 1014.05 1014.90 1015.54 1016.03 1016.62 1017.41 1018.08
1015.20 1015.22 1014.92 1014.29 1014.01 1013.71 1013.14 1012.56 1011.86 1010.78 1010.43 1010.30 1010.23 1010.38 1010.53 1010.54 1010.56 1010.46 1010.48 1010.54 1010.93 1011.22 1011.00 1010.74 1010.07 1009.87 1009.81 1009.76 1009.67 1009.94 1010.54 1010.96 1011.39 1011.93 1012.59 1013.34 1014.06 1014.80 1015.59 1016.12 1016.63 1017.22 1017.79 1018.48
1014.69 1014.57 1014.37 1014.31 1014.15 1013.77 1013.31 1012.64 1011.71 1010.85 1010.80 1010.65 1010.47 1010.67 1010.67 1010.80 1010.82 1010.96 1011.16 1011.21 1011.38 1011.38 1011.28 1011.11 1010.87 1010.62 1010.29 1010.26 1010.37 1010.72 1011.27 1011.68 1012.20 1012.86 1013.54 1014.26 1014.93 1015.48 1016.22 1017.06 1017.61 1017.90 1018.34 1018.82
Wind_Speed
23 23 23 24 25 27 10 4 7 5 8 6 3 3 12 5 17 16 11 6 11 11 11 5 7 11 5 6 5 2 2 2 4 9 1 0 6 3 9 9 4 3 6 4
23 23 22 22 22 23 10 7 6 6 4 5 6 8 11 16 14 14 5 4 8 3 5 3 9 9 7 12 7 8 5 7 6 9 2 4 3 14 7 8 5 5 7 4
22 22 22 21 22 23 9 4 6 5 4 6 8 13 10 13 16 10 7 11 2 4 4 6 5 6 6 15 8 9 6 4 4 9 5 7 6 11 10 9 6 6 4 8
22 21 21 21 21 22 4 2 3 2 8 11 16 15 12 15 15 8 8 5 2 5 5 7 6 7 6 10 10 5 5 7 6 6 11 12 1 3 3 6 9 8 10 10
23 21 20 21 21 19 3 2 4 3 12 12 14 13 8 17 14 7 4 8 9 6 6 7 6 7 2 2 7 3 3 4 6 6 12 21 4 6 9 9 10 12 10 3
23 21 21 21 20 12 2 2 4 5 7 10 11 6 14 18 24 10 9 13 11 8 8 6 12 9 12 3 3 3 4 2 4 4 6 10 2 3 9 12 8 13 6 4
22 21 21 22 20 14 2 3 4 4 8 8 12 19 19 20 24 15 8 13 9 4 10 13 8 10 8 6 7 4 1 4 3 5 6 6 3 7 13 17 11 5 6 10
22 22 22 21 19 18 3 3 3 3 5 11 17 20 18 20 19 14 7 10 12 14 9 4 3 1 1 4 4 11 2 4 5 5 5 4 4 7 10 8 5 6 6 16
23 23 22 21 19 17 2 3 3 5 5 4 15 18 17 11 10 9 9 10 12 5 3 2 4 3 3 2 2 5 8 2 4 3 6 5 4 5 13 10 3 3 21 19
23 23 24 22 20 19 7 5 4 3 6 9 7 9 7 7 10 7 7 14 5 4 3 1 2 3 5 4 5 2 4 3 3 3 6 3 1 7 8 7 7 9 19 16
24 23 23 23 21 19 8 6 6 3 4 11 9 4 17 16 5 7 9 8 3 4 6 5 4 2 1 3 5 6 4 3 2 4 6 1 4 3 9 6 7 17 15 16
25 23 23 23 22 19 13 3 3 3 5 9 14 20 20 16 20 7 4 4 8 3 3 3 3 3 5 3 3 3 5 4 3 4 4 4 11 21 15 17 20 18 22 17
26 25 23 22 21 18 13 3 3 2 3 6 3 6 9 9 4 7 3 4 4 6 4 2 3 2 2 3 4 7 6 4 7 7 10 15 19 18 17 18 20 17 18 18
25 23 21 19 17 16 14 2 3 2 3 4 7 6 12 15 10 10 5 9 8 5 2 2 3 3 5 3 1 5 1 5 10 15 14 21 16 17 18 19 19 19 16 16
24 22 19 17 16 16 9 4 2 3 2 3 7 15 6 7 9 12 10 6 5 3 5 4 3 3 5 4 5 6 5 9 7 6 6 17 12 15 19 20 18 18 21 18
24 22 19 16 15 12 3 2 3 2 1 4 4 5 6 7 13 9 9 6 3 2 2 3 4 3 3 5 4 4 4 9 14 9 12 18 17 17 20 20 18 18 19 18
24 21 18 15 11 1 2 2 3 7 1 2 4 4 5 6 5 5 4 5 3 2 2 4 2 4 5 3 3 6 9 17 18 20 23 16 15 14 19 20 19 20 17 15
23 20 16 12 9 4 3 1 5 4 2 2 3 5 5 5 5 5 3 4 4 5 1 4 4 4 3 5 5 10 13 15 15 12 13 19 17 18 18 18 17 17 15 14
25 14 9 3 3 2 3 11 7 1 1 3 2 3 5 4 3 3 5 2 4 4 4 3 4 4 5 1 4 12 9 8 16 19 19 17 19 18 16 17 16 16 14 13
18 4 3 1 2 7 9 1 1 1 2 3 3 1 4 1 2 3 4 3 1 3 4 2 5 3 3 5 6 8 15 17 19 20 15 16 16 17 15 16 14 14 13 12
5 4 2 3 8 3 2 2 1 2 2 3 4 2 2 1 2 3 1 2 1 3 5 4 2 2 2 4 8 9 11 11 10 13 13 12 16 15 15 14 14 14 13 11
5 6 4 3 2 2 3 3 2 3 3 3 0 4 3 4 1 2 4 2 3 2 1 3 2 3 3 7 6 9 10 10 12 11 11 9 13 14 15 15 14 12 12 12
1 0 2 2 2 2 3 4 2 4 2 2 2 3 2 4 2 2 2 3 2 1 4 1 2 5 4 6 7 8 8 13 11 13 17 17 17 18 17 15 12 14 12 10
2 3 5 2 2 2 2 2 4 5 2 3 2 3 1 2 4 1 3 3 2 3 3 1 4 7 4 7 5 12 11 9 9 18 18 18 17 15 13 13 13 13 12 10
0 0 3 2 2 3 4 4 4 4 4 3 3 2 3 2 2 3 3 5 4 3 2 2 5 9 4 6 8 10 11 10 15 16 16 15 15 13 11 9 9 11 11 10
1 2 2 3 3 3 3 3 4 3 3 3 2 1 2 1 1 2 2 2 2 1 2 3 4 4 4 6 9 13 8 8 13 14 14 14 13 13 11 11 10 10 10 8
3 3 2 2 3 5 4 2 4 2 3 2 1 2 2 2 2 3 4 1 2 0 2 2 4 4 4 7 10 11 13 13 14 14 13 12 11 11 11 10 6 8 8 7
Wind_Direction
337 335 340 341 340 341 345 312 310 302 340 44 309 312 338 323 285 293 291 302 271 269 301 273 238 204 229 134 166 214 224 296 166 224 162 341 297 300 180 172 177 129 143 245
336 338 339 341 341 343 330 306 272 298 41 0 326 303 307 297 297 304 283 252 240 31 292 223 244 193 184 157 151 193 154 213 150 149 4 343 161 261 205 110 98 179 127 220
338 342 340 341 340 335 333 299 311 337 352 355 327 322 307 313 304 302 301 278 33 330 288 242 255 202 166 169 174 219 45 255 190 205 142 148 172 220 176 128 119 153 165 143
339 339 338 339 339 335 350 305 323 346 316 330 315 307 289 340 331 293 294 264 221 295 287 301 243 238 146 183 204 172 228 204 193 138 156 162 7 49 41 128 158 151 177 161
333 337 334 337 337 341 49 330 341 328 293 298 310 310 340 325 310 267 302 310 320 302 272 239 303 351 355 214 195 160 214 199 140 67 145 157 155 49 75 99 103 83 120 105
335 335 333 336 339 359 318 298 260 268 292 307 309 307 320 316 316 289 334 330 310 294 309 322 287 262 277 275 297 161 261 102 85 105 136 123 55 144 84 91 82 136 147 196
334 332 330 332 332 348 233 287 277 281 298 309 305 305 320 323 318 304 320 341 308 325 312 298 245 249 240 231 262 167 29 67 75 132 126 140 113 130 109 99 88 53 108 120
328 328 327 327 328 327 212 252 296 278 283 295 300 324 320 314 311 306 312 318 300 293 290 241 161 260 207 236 173 175 122 91 113 164 123 130 100 158 153 135 165 150 108 123
327 327 328 326 322 321 297 245 219 278 304 248 318 311 308 310 319 317 296 315 299 294 287 292 185 171 146 147 106 46 93 37 209 178 96 87 261 172 135 112 12 51 142 149
323 324 323 326 322 317 314 287 223 268 272 279 305 302 303 310 305 278 293 325 324 322 300 307 46 93 133 151 141 182 113 32 62 61 86 26 113 347 161 81 207 129 138 153
321 322 320 320 323 320 318 272 254 222 266 285 269 296 300 293 281 291 315 317 21 302 358 3 14 18 316 131 130 130 107 98 50 68 80 118 357 32 133 150 82 109 101 109
322 321 318 317 320 324 324 269 255 214 242 274 286 281 272 261 256 275 292 289 305 283 317 352 319 339 358 27 78 306 66 158 143 80 81 358 68 102 99 106 107 113 118 126
317 319 317 312 316 325 336 263 270 269 271 280 344 277 307 293 285 215 297 278 248 263 237 275 235 3 24 37 20 79 53 83 80 73 51 82 87 83 92 100 102 104 102 110
318 320 319 312 314 320 332 281 258 244 258 279 284 286 302 307 315 321 222 260 289 266 201 253 0 37 15 41 128 77 333 85 99 92 95 80 69 88 104 99 100 98 93 100
323 325 317 315 313 311 312 241 254 279 265 290 298 301 261 294 325 318 310 308 299 326 357 8 16 356 12 358 38 23 353 138 128 129 104 107 106 98 97 95 100 103 104 96
327 329 321 314 311 318 321 284 212 305 42 294 303 298 298 316 325 317 318 315 330 19 40 332 347 314 91 60 16 287 354 93 112 126 110 105 103 96 94 96 96 96 98 102
323 316 313 310 305 89 200 241 258 305 234 262 278 293 307 322 320 319 325 331 334 62 355 15 333 337 53 62 45 358 81 104 110 114 107 92 105 111 102 99 99 96 96 95
322 318 309 303 290 264 274 248 246 285 270 274 293 296 315 360 323 329 333 337 358 360 356 359 8 349 43 44 341 82 99 101 102 93 95 113 114 107 104 106 105 99 99 101
322 315 318 19 25 339 255 303 319 157 246 303 298 293 308 358 285 280 326 30 15 310 35 349 62 337 49 307 73 103 121 111 118 111 114 116 116 115 115 113 108 108 108 109
319 42 31 360 304 279 312 11 323 256 214 230 250 289 280 61 313 309 1 359 342 34 278 4 56 353 317 36 97 110 124 127 127 118 125 126 124 128 131 126 125 122 122 122
8 7 345 271 300 357 252 277 213 212 259 226 248 191 285 286 0 294 162 252 302 48 285 84 5 344 319 74 77 116 119 127 122 112 132 133 136 139 132 130 126 123 124 123
274 286 285 281 305 265 311 258 235 212 233 272 215 265 208 287 147 22 322 347 13 341 224 64 66 319 145 99 100 112 125 129 126 127 129 116 128 130 126 124 122 119 119 117
288 3 254 234 264 5 319 350 339 330 305 286 306 315 218 341 32 316 340 10 274 330 45 88 21 308 140 115 100 103 122 115 101 105 103 103 109 114 121 118 115 116 116 117
352 349 308 225 20 24 280 313 308 289 313 314 324 314 21 352 4 358 359 285 5 51 27 10 319 332 342 104 101 126 127 143 120 116 113 111 110 112 112 113 122 122 120 115
269 36 280 338 302 270 269 273 298 297 306 0 353 9 54 319 17 344 359 342 50 31 314 261 266 293 306 103 104 105 85 78 120 117 114 112 112 112 110 107 110 115 120 122
187 214 278 284 311 321 316 300 298 289 305 341 9 360 355 351 280 303 334 355 40 291 310 300 355 92 98 106 108 115 114 119 116 112 113 111 110 112 112 106 108 115 125 130
199 245 230 239 243 256 257 270 266 303 12 327 350 358 242 310 15 5 1 67 174 277 321 333 10 5 101 117 95 106 122 114 111 112 109 110 111 110 107 100 94 98 104 107